Вернуться в каталог

NAVSTAR 68

USA 242

АктивенНавигацияHEO
NORAD 39166·PAYLOAD·🇺🇸 United States

Запущен May 15, 2013 с Cape Canaveral Space Force Station

Loading…

Ближайшие Пролёты (ближайшие 24 часа)

TLE

СвежийSource: CelesTrak SupGP

Эпоха: Sep 16, 2026, 16:44 UTC

1 39166C 13023A   26259.69756944  .00000000  00000+0  00000+0 0  2595
2 39166  54.4387 265.2395 0142451  51.1026 148.3895  2.00563646    13

Отслеживайте NAVSTAR 68 в реальном времени с AllMySat

Download on the App Store